AFL1140 UUEE-URSS

Flight info

Callsign AFL1140
Flight time N/A
Altitude 33000
Route TOGMO3J TOGMO M56 ABAGI B105 NATIT DCT MOLED DCT LIDUS G242 ZG DCT ITAKA DCT OBBUD DCT AMKOL DCT GOTIK DCT MEMZA DCT VENFO DCT BINOL BINOL1L
Aircraft A320/M-SDE3FGHIRWY/LB1

Departure

Time 2026-05-06 15:14
Airport Sheremetyevo International Airport (UUEE)

Arrival

Time N/A
Airport Sochi International Airport (URSS)
Time Latitude Longitude Altitude Speed Heading
2026-05-06 15:13 55.87767 36.96820 12059 ft 270 kts 284°
2026-05-06 15:14 55.88307 36.93591 12775 ft 274 kts 284°
2026-05-06 15:14 55.88849 36.90306 13490 ft 278 kts 284°
2026-05-06 15:14 55.89394 36.86969 14153 ft 283 kts 284°
2026-05-06 15:14 55.89944 36.83584 14807 ft 286 kts 284°
2026-05-06 15:15 55.90495 36.80173 15459 ft 288 kts 284°
2026-05-06 15:15 55.90896 36.76666 16102 ft 289 kts 272°
2026-05-06 15:15 55.90820 36.73086 16748 ft 291 kts 260°
2026-05-06 15:15 55.90355 36.69555 17382 ft 294 kts 256°
2026-05-06 15:16 55.89858 36.66050 18019 ft 297 kts 256°
2026-05-06 15:16 55.89348 36.62469 18583 ft 300 kts 256°
2026-05-06 15:16 55.88834 36.58848 19122 ft 303 kts 256°
2026-05-06 15:16 55.88317 36.55201 19664 ft 305 kts 256°
2026-05-06 15:17 55.87623 36.51615 20188 ft 310 kts 242°
2026-05-06 15:17 55.86231 36.48658 20689 ft 319 kts 220°
2026-05-06 15:17 55.84224 36.46879 21169 ft 331 kts 198°
2026-05-06 15:17 55.81885 36.46718 21669 ft 345 kts 177°
2026-05-06 15:18 55.79492 36.47364 22170 ft 350 kts 176°
2026-05-06 15:18 55.77093 36.48233 22679 ft 356 kts 167°
2026-05-06 15:18 55.74788 36.49958 23190 ft 365 kts 155°
2026-05-06 15:18 55.72603 36.52340 23645 ft 370 kts 152°
2026-05-06 15:19 55.70412 36.54747 24078 ft 372 kts 153°
2026-05-06 15:19 55.68196 36.57158 24492 ft 374 kts 152°
2026-05-06 15:19 55.65969 36.59567 24921 ft 376 kts 152°
2026-05-06 15:19 55.63728 36.61996 25341 ft 379 kts 150°
2026-05-06 15:20 55.61636 36.64880 25758 ft 386 kts 139°
2026-05-06 15:20 55.59851 36.68509 25983 ft 398 kts 127°
2026-05-06 15:20 55.58367 36.72716 26114 ft 409 kts 123°
2026-05-06 15:20 55.56872 36.77070 26293 ft 418 kts 123°
2026-05-06 15:21 55.55351 36.81489 26619 ft 422 kts 123°
2026-05-06 15:21 55.53816 36.85929 26991 ft 425 kts 123°
2026-05-06 15:21 55.52268 36.90387 27370 ft 427 kts 123°
2026-05-06 15:21 55.50709 36.94853 27749 ft 429 kts 123°
2026-05-06 15:22 55.49137 36.99343 28122 ft 431 kts 123°
2026-05-06 15:22 55.47556 37.03845 28535 ft 432 kts 123°
2026-05-06 15:22 55.45958 37.08355 28904 ft 434 kts 126°
2026-05-06 15:22 55.44096 37.12526 29262 ft 434 kts 135°
2026-05-06 15:23 55.41867 37.16089 29610 ft 433 kts 145°
2026-05-06 15:23 55.39345 37.18965 29940 ft 433 kts 153°
2026-05-06 15:23 55.36713 37.21576 30228 ft 435 kts 153°
2026-05-06 15:23 55.34077 37.24192 30519 ft 437 kts 153°
2026-05-06 15:24 55.31422 37.26824 30808 ft 439 kts 153°
2026-05-06 15:24 55.28757 37.29464 31088 ft 441 kts 153°
2026-05-06 15:24 55.26089 37.32117 31355 ft 443 kts 150°
2026-05-06 15:24 55.23564 37.35268 31600 ft 448 kts 140°
2026-05-06 15:25 55.21376 37.39079 31855 ft 451 kts 130°
2026-05-06 15:25 55.19539 37.43550 32120 ft 454 kts 121°
2026-05-06 15:25 55.18036 37.48429 32369 ft 456 kts 118°
2026-05-06 15:25 55.16550 37.53340 32618 ft 458 kts 118°
2026-05-06 15:26 55.15049 37.58258 32834 ft 459 kts 118°
2026-05-06 15:26 55.12701 37.68741 32888 ft 470 kts 102°
2026-05-06 15:27 55.11566 37.80027 32888 ft 471 kts 99°
2026-05-06 15:27 55.09425 37.90800 32890 ft 472 kts 118°
2026-05-06 15:28 55.06292 37.98571 32884 ft 472 kts 133°
2026-05-06 15:28 55.00955 38.08178 32882 ft 472 kts 134°
2026-05-06 15:29 54.97165 38.14999 32877 ft 472 kts 134°
2026-05-06 15:29 54.91850 38.24515 32854 ft 471 kts 134°
2026-05-06 15:30 54.87270 38.32663 32855 ft 471 kts 134°
2026-05-06 15:30 54.83924 38.40160 32856 ft 469 kts 120°
2026-05-06 15:31 54.80739 38.50033 32855 ft 469 kts 118°
2026-05-06 15:31 54.77360 38.59621 32846 ft 470 kts 128°
2026-05-06 15:32 54.72616 38.67448 32847 ft 470 kts 145°
2026-05-06 15:32 54.69847 38.70452 32849 ft 469 kts 149°
2026-05-06 15:32 54.64256 38.76265 32848 ft 469 kts 149°
2026-05-06 15:33 54.58697 38.82038 32850 ft 469 kts 149°
2026-05-06 15:33 54.53113 38.87821 32849 ft 468 kts 148°
2026-05-06 15:34 54.47542 38.93578 32852 ft 467 kts 148°
2026-05-06 15:34 54.42110 38.99683 32852 ft 466 kts 139°
2026-05-06 15:35 54.37866 39.07984 32846 ft 463 kts 121°
2026-05-06 15:35 54.35143 39.17936 32840 ft 461 kts 111°
2026-05-06 15:36 54.32707 39.28083 32837 ft 461 kts 111°
2026-05-06 15:36 54.30248 39.38222 32842 ft 461 kts 111°
2026-05-06 15:37 54.27780 39.48346 32835 ft 461 kts 111°
2026-05-06 15:37 54.25306 39.58455 32839 ft 461 kts 111°
2026-05-06 15:38 54.22839 39.68486 32833 ft 461 kts 111°
2026-05-06 15:38 54.20346 39.78576 32839 ft 461 kts 111°
2026-05-06 15:39 54.17850 39.88650 32843 ft 461 kts 111°
2026-05-06 15:39 54.15346 39.98713 32837 ft 461 kts 112°
2026-05-06 15:40 54.12822 40.08771 32842 ft 461 kts 112°
2026-05-06 15:40 54.10708 40.19058 32832 ft 460 kts 105°
2026-05-06 15:41 54.08906 40.29528 32835 ft 461 kts 105°
2026-05-06 15:41 54.07087 40.39990 32837 ft 461 kts 105°
2026-05-06 15:42 54.05260 40.50446 32839 ft 461 kts 105°
2026-05-06 15:42 54.03418 40.60897 32839 ft 461 kts 105°
2026-05-06 15:43 54.01580 40.71270 32838 ft 461 kts 106°
2026-05-06 15:43 53.99710 40.81775 32839 ft 462 kts 106°
2026-05-06 15:44 53.97837 40.92205 32843 ft 462 kts 106°
2026-05-06 15:44 53.95964 41.02573 32839 ft 462 kts 106°
2026-05-06 15:45 53.94156 41.13043 32844 ft 462 kts 105°
2026-05-06 15:45 53.92466 41.23560 32839 ft 462 kts 104°
2026-05-06 15:46 53.90776 41.34081 32842 ft 462 kts 105°
2026-05-06 15:46 53.89034 41.44584 32841 ft 462 kts 105°
2026-05-06 15:47 53.87269 41.55071 32842 ft 463 kts 105°
2026-05-06 15:47 53.85501 41.65569 32846 ft 463 kts 105°
2026-05-06 15:48 53.83723 41.76063 32844 ft 464 kts 105°
2026-05-06 15:48 53.81952 41.86486 32850 ft 464 kts 105°
2026-05-06 15:49 53.80150 41.96955 32857 ft 463 kts 106°
2026-05-06 15:49 53.78341 42.07406 32857 ft 463 kts 106°
2026-05-06 15:50 53.76522 42.17855 32858 ft 463 kts 106°
2026-05-06 15:50 53.74683 42.28279 32852 ft 463 kts 106°
2026-05-06 15:51 53.72848 42.38699 32858 ft 463 kts 106°
2026-05-06 15:51 53.71016 42.49108 32855 ft 462 kts 106°
2026-05-06 15:52 53.68835 42.59294 32853 ft 462 kts 118°
2026-05-06 15:52 53.64910 42.67813 32856 ft 462 kts 138°
2026-05-06 15:53 53.59521 42.73592 32844 ft 461 kts 157°
2026-05-06 15:53 53.53620 42.77832 32850 ft 461 kts 157°
2026-05-06 15:54 53.47714 42.82097 32848 ft 462 kts 157°
2026-05-06 15:54 53.41810 42.86337 32859 ft 462 kts 157°
2026-05-06 15:55 53.35891 42.90582 32858 ft 462 kts 157°
2026-05-06 15:55 53.29980 42.94817 32866 ft 462 kts 157°
2026-05-06 15:56 53.24062 42.99030 32875 ft 462 kts 157°
2026-05-06 15:56 53.18144 43.03218 32874 ft 462 kts 157°
2026-05-06 15:57 53.12265 43.07370 32881 ft 462 kts 157°
2026-05-06 15:57 53.06392 43.11698 32884 ft 462 kts 155°
2026-05-06 15:58 53.00546 43.16116 32888 ft 461 kts 155°
2026-05-06 15:58 52.94693 43.20496 32885 ft 461 kts 156°
2026-05-06 15:59 52.88830 43.24825 32886 ft 461 kts 156°
2026-05-06 15:59 52.82961 43.29129 32893 ft 461 kts 156°
2026-05-06 16:00 52.77100 43.33424 32898 ft 460 kts 156°
2026-05-06 16:00 52.71245 43.37715 32897 ft 460 kts 156°
2026-05-06 16:01 52.65395 43.41983 32896 ft 460 kts 156°
2026-05-06 16:01 52.59544 43.46239 32897 ft 459 kts 156°
2026-05-06 16:02 52.53702 43.50480 32905 ft 459 kts 156°
2026-05-06 16:02 52.47897 43.54673 32896 ft 459 kts 156°
2026-05-06 16:03 52.42056 43.58887 32896 ft 459 kts 156°
2026-05-06 16:03 52.36204 43.63087 32885 ft 459 kts 156°
2026-05-06 16:04 52.30351 43.67272 32899 ft 459 kts 156°
2026-05-06 16:04 52.24505 43.71448 32902 ft 458 kts 156°
2026-05-06 16:05 52.18662 43.75617 32914 ft 458 kts 156°
2026-05-06 16:05 52.12827 43.79768 32909 ft 457 kts 156°
2026-05-06 16:06 52.07001 43.83895 32911 ft 457 kts 156°
2026-05-06 16:06 52.01170 43.88011 32910 ft 456 kts 156°
2026-05-06 16:07 51.95379 43.92082 32907 ft 456 kts 156°
2026-05-06 16:07 51.89558 43.96183 32906 ft 456 kts 156°
2026-05-06 16:08 51.83734 44.00270 32910 ft 456 kts 156°
2026-05-06 16:08 51.77906 44.04341 32910 ft 456 kts 156°
2026-05-06 16:09 51.72080 44.08387 32912 ft 456 kts 156°
2026-05-06 16:09 51.67378 44.11654 32915 ft 455 kts 156°
2026-05-06 16:10 51.61564 44.15690 32914 ft 455 kts 156°